AirNav   ProFlight Series 2 Aviation Headset
 
 1466 users online  

NH03 Granite Heliport
Hudson, New Hampshire, USA

GOING TO HUDSON?


FAA INFORMATION EFFECTIVE 16 JULY 2020

Location

FAA Identifier: NH03
Lat/Long: 42-47-39.0000N 071-22-04.0000W
42-47.650000N 071-22.066667W
42.7941667,-71.3677778
(estimated)
Elevation: 217 ft. / 66 m
From city: 3 miles NE of HUDSON, NH
Time zone: UTC -4 (UTC -5 during Standard Time)
Zip code: 03051

Heliport Operations

Heliport use: Private use. Permission required prior to landing
Activation date: 01/2017
Control tower: no
ARTCC: BOSTON CENTER
FSS: BANGOR FLIGHT SERVICE STATION
Attendance: 
Wind indicator: no
Segmented circle: no

Heliport Communications

WX AWOS-3PT at ASH (6 nm W): 125.1 (603-578-0473)
WX ASOS at MHT (9 nm N): 119.55 (603-621-1766)
WX ASOS at LWM (12 nm SE): PHONE 978-687-8017
WX ASOS at BED (20 nm S): 124.6 (781-274-9733)

Nearby radio navigation aids

VOR radial/distance  VOR name  Freq  Var
MHTr194/4.5MANCHESTER VOR/DME114.4015W
LWMr300/12.4LAWRENCE VOR/DME112.5015W
CONr175/27.1CONCORD VOR/DME112.9015W
PSMr249/29.3PEASE VOR/DME116.5016W
BOSr343/31.1BOSTON VOR/DME112.7016W
GDMr078/33.9GARDNER VOR/DME110.6014W

 
NDB name  Hdg/Dist  Freq  Var  ID
FITZY136/8.220915WMJ -- .---
ROLLINS239/34.826016WESG . ... --.

Heliport Services

Runway Information

Helipad H1

Dimensions: 30 x 30 ft. / 9 x 9 m
Surface: turf
Latitude: 42-47.650000N
Longitude: 071-22.066667W
Elevation: 217.0 ft.
Traffic pattern: leftleft

Heliport Ownership and Management from official FAA records

Ownership: Privately-owned
Owner: JOSEPH MIARA
12 BOCKERS ROAD
HUDSON, NH 03015-3115
Phone 978-375-0213
Manager: JOSEPH MIARA
12 BOCKERS ROAD
HUDSON, NH 03015
Phone 978-375-0213

Additional Remarks

FOR CD CTC BOSTON APCH AT 603-594-5551.

Instrument Procedures

There are no published instrument procedures at NH03.

Some nearby airports with instrument procedures:

KASH - Boire Field Airport (6 nm W)
KMHT - Manchester Airport (9 nm N)
KLWM - Lawrence Municipal Airport (12 nm SE)
KBED - Laurence G Hanscom Field Airport (20 nm S)
6B6 - Minute Man Air Field (21 nm S)
 
Loc | Ops | Rwys | IFR | FBO | Links
Com | Nav | Svcs | Stats | Notes
Aerial photo
No photo
 
Airport distance calculator
Flying to Granite Heliport? Find the distance to fly.

From to NH03

Sunrise and sunset
Times for 07-Aug-2020
 Local
(UTC-4)
 Zulu
(UTC)
Morning civil twilight05:1409:14
Sunrise05:4509:45
Sunset19:5723:57
Evening civil twilight20:2800:28

Current date and time
Zulu (UTC)  07-Aug-2020 16:01:49
Local (UTC-4)  07-Aug-2020 12:01:49
 
METAR
KASH 
7nm W 
071556Z 08006KT 10SM BKN120 24/15 A3020 RMK AO2 SLP228 T02390150
KMHT 
9nm N 
071553Z 14006KT 10SM SCT090 BKN120 BKN250 26/13 A3017 RMK AO2 SLP227 T02560133
KLWM 
11nm SE 
071554Z 08004KT 10SM CLR 23/16 A3021 RMK AO2 SLP229 T02280156
KBED 
20nm S 
071551Z VRB05KT 10SM SCT040 SCT049 BKN070 25/16 A3017 RMK AO2 SLP229 T02500161
TAF
KMHT 
9nm N 
071120Z 0712/0812 VRB03KT P6SM BKN250 FM071700 13007KT P6SM BKN100 FM080900 00000KT P6SM OVC050
KBED 
20nm S 
071120Z 0712/0812 00000KT P6SM BKN250 FM080000 10004KT P6SM BKN250 FM080500 00000KT P6SM VCSH BKN060 OVC100 FM081000 00000KT 6SM BR VCSH BKN020 OVC040
NOTAMs
Click for the latest NOTAMs
NOTAMs are issued by the DoD/FAA and will open in a separate window not controlled by AirNav.

 

 
 

Would you like to see your business listed on this page?

 If your business provides an interesting product or service to pilots, flight crews, aircraft, or users of the Granite Heliport, you should consider listing it here.  To start the listing process, click on the button below
 
Add a business
 

Other Pages about Granite Heliport

Update a link
 
Copyright © AirNav, LLC. All rights reserved. Privacy Policy  Contact